Flag for U.S.A. Weather past 2 weeks in Olympia, Washington, U.S.A.

Now
40 °F

Low clouds.


Feels Like: 38 °F
Forecast: 36 / 44 °F
Wind: 3 mph from Southeast

Location: Olympia Airport

Current Time: Dec 25, 2014 at 8:35:02 PM

Latest Report: Dec 25, 2014 at 8:03 PM


Visibility: 8 mi

Pressure: 30.27 "Hg

Humidity: 89%

Dew point: 37 °F

Location of OlympiaLocation

Historic Weather in Olympia — Graph

°F

Olympia temperature yesterday

Maximum temperature yesterday: 49 °F (at 2:54 PM)
Minimum temperature yesterday: 30 °F (at 11:54 PM)
Average temperature yesterday: 40 °F

Past Weeks' High & Low Weather Summary

 TemperatureHumidityPressure
High57 °F (Dec 11, 4:54 PM)100% (Dec 11, 2:57 AM)30.37 "Hg (Dec 11, 2:57 AM)
Low25 °F (Dec 14, 11:54 PM)58% (Dec 11, 5:54 PM)29.11 "Hg (Dec 11, 3:54 PM)
Average44 °F90%29.92 "Hg
* Reported Dec 10 7:54 PM — Dec 25 7:54 PM, Olympia, Weather by CustomWeather, © 2014

Note: Actual official high and low records may vary slightly from our data, if they occured in-between our weather recording intervals... More about our weather records

Advertising

Olympia weather history for previous 24 hours

 ConditionsComfort  
Time TempWeatherWind HumidityBarometerVisibility
7:54 PM
Dec 25
40 °FLow clouds.No wind93%30.28 "Hg8 mi
6:54 PM39 °FFog.No wind96%30.26 "Hg5 mi
5:54 PM39 °FLow clouds.No wind93%30.26 "Hg7 mi
4:54 PM39 °FLow clouds.5 mph93%30.25 "Hg8 mi
3:54 PM40 °FLow clouds.3 mph89%30.25 "Hg7 mi
2:54 PM40 °FLow clouds.5 mph89%30.24 "Hg8 mi
1:54 PM39 °FLow clouds.No wind96%30.22 "Hg9 mi
12:54 PM39 °FFog.No wind93%30.22 "Hg3 mi
11:54 AM37 °FFog.No wind100%30.23 "Hg3 mi
10:54 AM36 °FFog.No wind100%30.23 "Hg2 mi
10:00 AM35 °FFog.No wind100%30.22 "Hg1 mi
8:54 AM33 °FFog.3 mph100%30.21 "Hg0 mi
7:54 AM32 °FFog.No wind100%30.19 "Hg0 mi
6:54 AM32 °FFog.No wind100%30.17 "Hg1 mi
6:01 AM32 °FFog.No wind96%30.15 "Hg1 mi
4:54 AM31 °FIce fog.No wind100%30.14 "Hg0 mi
3:54 AM31 °FIce fog.No wind96%30.12 "Hg0 mi
2:54 AM29 °FIce fog.No wind96%30.11 "Hg0 mi
1:54 AM28 °FIce fog.No wind96%30.09 "Hg1 mi
12:54 AM30 °FIce fog.No wind96%30.07 "Hg0 mi
11:54 PM
Dec 24
30 °FIce fog.No wind96%30.07 "Hg1 mi
10:54 PM31 °FIce fog.3 mph92%30.06 "Hg1 mi
10:03 PM32 °FIce fog.3 mph100%30.04 "Hg2 mi
8:54 PM37 °FClear.7 mph93%30.03 "Hg10 mi
8:01 PM41 °FClear.5 mph82%30.00 "Hg10 mi
Weather by CustomWeather, © 2014

See weather overviewHow to use our weather pages